Regional Weather Roundup
Issued by NWS Jackson, KY

Home | Current Version | Previous Version | Graphics & Text | Print | Product List | Glossary On
Versions: 1 2 3 4 5 6 7 8 9 10 11 12 13 14 15 16 17 18 19 20 21 22 23 24 25 26 27 28 29 30 31 32 33 34 35 36 37 38 39 40 41 42 43 44 45 46 47 48 49 50
000
ASUS43 KJKL 230910
RWRJKL

EAST KENTUCKY HOURLY WEATHER ROUNDUP
NATIONAL WEATHER SERVICE JACKSON KY
500 AM EDT SAT AUG 23 2014

NOTE: "FAIR" INDICATES FEW OR NO CLOUDS BELOW 12,000 FEET WITH
NO SIGNIFICANT WEATHER AND/OR OBSTRUCTIONS TO VISIBILITY.

* THESE REPORTS ARE NOT UNDER NWS QUALITY CONTROL AND MAY NOT
  REPORT WEATHER SUCH AS PRECIPITATION AND FOG.

KYZ079-080-083-085-087-088-110-112-115-119-120-231000
...EASTERN KENTUCKY...

CITY           SKY/WX    TMP DP  RH WIND       PRES   REMARKS
JACKSON        FOG       70  68  93 CALM      30.02R VSB 3/4
LONDON         CLOUDY    76  72  87 W3        30.02S
SOMERSET*      PTCLDY    72  72 100 CALM      30.02S FOG
MONTICELLO*    PTCLDY    73  72  97 CALM      30.02F FOG
WILLIAMSBURG*  CLEAR    N/A N/A N/A CALM        N/A
MIDDLESBORO*   MOCLDY    71  71  98 CALM      30.02R
HARLAN APT*    PTSUNNY   70  70 100 MISG      30.03S
BLACK MTN*       N/A     66  66 100 NE2         N/A
PIKEVILLE APT* FOG       68  68 100 S3        30.02S VSB 1/4
BIG SANDY*     FOG       70  70 100 CALM      30.01R VSB 1/4
MOREHEAD APT*  FOG       70  68  94 CALM      30.02S VSB<1/4
$$

KYZ035-036-041-042-044-050-067-078-099-231000
...CENTRAL KENTUCKY...

CITY           SKY/WX    TMP DP  RH WIND       PRES   REMARKS
MT STERLING*   PTCLDY    70  70 100 CALM      30.01S
FLEMING/MASON* FOG       70  70 100 CALM      30.01R VSB 0
DANVILLE*      CLEAR     68  68 100 CALM      30.02S FOG
RICHMOND*        N/A     70  68  94 CALM      30.00F VSB 1
LEXINGTON      CLEAR     71  68  90 CALM      30.00F
FRANKFORT      MOCLDY    69  68  96 CALM      29.99S FOG
$$

KYZ091>093-OHZ055-061-077-WVZ005-015-034-035-042-231000
...SOUTHERN OHIO/WEST VIRGINIA...

CITY           SKY/WX    TMP DP  RH WIND       PRES   REMARKS
COVINGTON      FOG       72  70  94 CALM      29.99S VSB 3/4
COLUMBUS       CLEAR     73  70  88 CALM      29.98R FOG
DAYTON         PTCLDY    73  71  93 CALM      29.99F
WILMINGTON     FOG       68  67  96 CALM      29.99S VSB 3/4
HUNTINGTON     FOG       70  70 100 SW6       29.97S VSB 3/4
CHARLESTON     CLOUDY    72  71  97 CALM      29.98S
PINEVILLE*     CLOUDY    70  70 100 MISG      30.08S FOG
BECKLEY        CLOUDY    67  66  97 SW5       30.06S
BLUEFIELD      CLOUDY    69  65  86 W7        30.08S
$$

VAZ002-007-008-TNZ017-027-036-066-071-231000
...SOUTHWEST VIRGINIA/EAST TENNESSEE...

CITY           SKY/WX    TMP DP  RH WIND       PRES   REMARKS
WISE*          LGT RAIN  68  68 100 W3        30.09F
JONESVILLE*      N/A     70  70 100 CALM      30.04S
ABINGDON*      CLOUDY    70  70 100 W3        30.06S FOG
BRISTOL        MOCLDY    69  67  93 CALM      30.03F
KNOXVILLE      MOCLDY    74  71  91 SW5       29.99F
OAK RIDGE      CLEAR     73  71  93 CALM      30.02R
CROSSVILLE     PTCLDY    71  69  93 CALM      30.07S FOG
NASHVILLE      PTCLDY    76  73  91 CALM      30.00S
$$

...KEY TO REMARKS...
VSB - VISIBILITY IN MILES
WCI - WIND CHILL INDEX
HX  - HEAT INDEX

$$


USA.gov is the U.S. government's official web portal to all federal, state and local government web resources and services.